Chiang Mai, Thailand

7:09 PM ICT on August 26, 2016 (GMT +0700)
Chiang Mai International

Weather History for VTCC - September, 2013

Change the Weather History Date:

Thursday, September 19, 2013

  Actual Average Record
Temperature  
Mean Temperature 84 °F -  
Max Temperature 94 °F 85 °F 94 °F (2013)
Min Temperature 75 °F 71 °F 71 °F (2000)
Cooling Degree Days 20    
Growing Degree Days 34 (Base 50)    
Moisture  
Dew Point 71 °F    
Average Humidity 70    
Maximum Humidity 90    
Minimum Humidity 43    
Precipitation  
Precipitation 0.00 in 0.21 in - ()
Sea Level Pressure  
Sea Level Pressure 29.73 in    
Wind  
Wind Speed 2 mph ()    
Max Wind Speed 9 mph    
Max Gust Speed -    
Visibility 6.2 miles    
Events      
Averages and records for this station are not official NWS values.
T = Trace of Precipitation, MM = Missing Value Source: Averaged Metar Reports

Daily Weather History Graph

Daily Weather History Graph

Search for Another Location

Airport or City:

Trip Planner

Search our weather history database for the weather conditions in past years. The results will help you decide how hot, cold, wet, or windy it might be!

Date:

Astronomy

Sep. 19, 2013 Rise Set
Actual Time 6:12 AM ICT 6:23 PM ICT
Civil Twilight 5:50 AM ICT 6:45 PM ICT
Nautical Twilight 5:25 AM ICT 7:10 PM ICT
Astronomical Twilight 4:59 AM ICT 7:35 PM ICT
Moon 6:09 PM ICT (9/19) 5:44 AM ICT (9/19)
Length of Visible Light 12h 54m
Length of Day
12h 10m
Full, 100% of the Moon is Illuminated
Sep 19
Full
Sep 19
Full
Sep 27
Last Quarter
Oct 5
New
Oct 12
First Quarter

Hourly Weather History & Observations

Time (ICT) Temp. Heat Index Dew Point Humidity Pressure Visibility Wind Dir Wind Speed Gust Speed Precip Events Conditions
12:00 AM 78.8 °F - 73.4 °F 83% 29.80 in 6.2 mi Calm Calm - N/A   Scattered Clouds
12:30 AM 77.0 °F - 71.6 °F 83% 29.80 in 6.2 mi North 3.5 mph - N/A   Scattered Clouds
1:00 AM 78 °F - 74 °F 86% 29.73 in 6 mi Calm Calm - -   Mostly Cloudy
1:30 AM 77.0 °F - 71.6 °F 83% 29.77 in 6.2 mi ENE 2.3 mph - N/A   Scattered Clouds
2:00 AM 77.0 °F - 73.4 °F 89% 29.77 in 6.2 mi ENE 2.3 mph - N/A   Scattered Clouds
2:30 AM 77.0 °F - 73.4 °F 89% 29.74 in 6.2 mi NW 2.3 mph - N/A   Scattered Clouds
3:00 AM 77.0 °F - 73.4 °F 89% 29.74 in 6.2 mi WNW 4.6 mph - N/A   Scattered Clouds
3:30 AM 75.2 °F - 71.6 °F 89% 29.74 in 6.2 mi NNW 3.5 mph - N/A   Scattered Clouds
4:00 AM 75.2 °F - 71.6 °F 89% 29.74 in 6.2 mi Calm Calm - N/A   Scattered Clouds
4:30 AM 75.2 °F - 71.6 °F 89% 29.74 in 6.2 mi Calm Calm - N/A   Scattered Clouds
5:00 AM 75.2 °F - 71.6 °F 89% 29.74 in 6.2 mi Calm Calm - N/A   Scattered Clouds
5:30 AM 75.2 °F - 71.6 °F 89% 29.74 in 6.2 mi Calm Calm - N/A   Scattered Clouds
6:00 AM 75.2 °F - 71.6 °F 89% 29.77 in 6.2 mi Calm Calm - N/A   Scattered Clouds
6:30 AM 75.2 °F - 71.6 °F 89% 29.77 in 6.2 mi Calm Calm - N/A   Scattered Clouds
7:00 AM 75 °F - 73 °F 90% 29.74 in 7 mi Calm Calm - -   Scattered Clouds
7:00 AM 77.0 °F - 71.6 °F 83% 29.77 in 6.2 mi Calm Calm - N/A   Scattered Clouds
7:30 AM 77.0 °F - 71.6 °F 83% 29.77 in 6.2 mi Calm Calm - N/A   Scattered Clouds
8:00 AM 80.6 °F 84.6 °F 71.6 °F 74% 29.80 in 6.2 mi Calm Calm - N/A   Scattered Clouds
8:30 AM 80.6 °F 84.6 °F 71.6 °F 74% 29.80 in 6.2 mi East 3.5 mph - N/A   Scattered Clouds
9:00 AM 80.6 °F 83.9 °F 69.8 °F 70% 29.80 in 6.2 mi North 4.6 mph - N/A   Mostly Cloudy
9:30 AM 82.4 °F 87.2 °F 71.6 °F 70% 29.80 in 6.2 mi ESE 3.5 mph - N/A   Mostly Cloudy
10:00 AM 86.0 °F 90.4 °F 69.8 °F 58% 29.80 in 6.2 mi NE 3.5 mph - N/A   Mostly Cloudy
10:30 AM 86.0 °F 90.4 °F 69.8 °F 58% 29.80 in 6.2 mi ENE 2.3 mph - N/A   Scattered Clouds
11:00 AM 86.0 °F 90.4 °F 69.8 °F 58% 29.80 in 6.2 mi WSW 4.6 mph - N/A   Scattered Clouds
11:30 AM 87.8 °F 92.6 °F 69.8 °F 55% 29.77 in 6.2 mi WNW 5.8 mph - N/A   Scattered Clouds
12:00 PM 89.6 °F 96.2 °F 71.6 °F 55% 29.77 in 6.2 mi North 3.5 mph - N/A   Scattered Clouds
12:30 PM 89.6 °F 93.4 °F 68.0 °F 49% 29.74 in 6.2 mi North 4.6 mph - N/A   Scattered Clouds
1:00 PM 93 °F - 73 °F 43% 29.65 in 7 mi North 3.5 mph - -   Partly Cloudy
1:00 PM 89.6 °F 94.7 °F 69.8 °F 52% 29.71 in 6.2 mi North 4.6 mph - N/A   Scattered Clouds
1:30 PM 89.6 °F 94.7 °F 69.8 °F 52% 29.71 in 6.2 mi NNW 6.9 mph - N/A   Scattered Clouds
2:00 PM 91.4 °F 96.8 °F 69.8 °F 49% 29.68 in 6.2 mi North 5.8 mph - N/A   Scattered Clouds
2:30 PM 91.4 °F 96.8 °F 69.8 °F 49% 29.68 in 6.2 mi NNW 9.2 mph - N/A   Scattered Clouds
3:00 PM 91.4 °F 96.8 °F 69.8 °F 49% 29.65 in 6.2 mi North 6.9 mph - N/A   Mostly Cloudy
3:30 PM 91.4 °F 96.8 °F 69.8 °F 49% 29.65 in 6.2 mi North 9.2 mph - N/A   Scattered Clouds
4:00 PM 91.4 °F 96.8 °F 69.8 °F 49% 29.62 in 6.2 mi NNW 8.1 mph - N/A   Scattered Clouds
4:30 PM 91.4 °F 96.8 °F 69.8 °F 49% 29.62 in 6.2 mi North 8.1 mph - N/A   Scattered Clouds
5:00 PM 89.6 °F 94.7 °F 69.8 °F 52% 29.62 in 6.2 mi NNW 6.9 mph - N/A   Scattered Clouds
5:30 PM 89.6 °F 94.7 °F 69.8 °F 52% 29.65 in 6.2 mi NNW 5.8 mph - N/A   Scattered Clouds
6:00 PM 87.8 °F 95.6 °F 73.4 °F 62% 29.65 in 6.2 mi West 3.5 mph - N/A   Scattered Clouds
6:30 PM 86.0 °F 93.4 °F 73.4 °F 66% 29.68 in 6.2 mi West 4.6 mph - N/A   Scattered Clouds
7:00 PM 87 °F - 77 °F 65% 29.62 in 7 mi Calm Calm - -   Scattered Clouds
7:00 PM 84.2 °F 90.9 °F 73.4 °F 70% 29.68 in 6.2 mi West 4.6 mph - N/A   Scattered Clouds
7:30 PM 84.2 °F 89.6 °F 71.6 °F 66% 29.68 in 6.2 mi WSW 4.6 mph - N/A   Scattered Clouds
8:00 PM 82.4 °F 87.2 °F 71.6 °F 70% 29.71 in 6.2 mi Calm Calm - N/A   Scattered Clouds
8:30 PM 82.4 °F 87.2 °F 71.6 °F 70% 29.74 in 6.2 mi Calm Calm - N/A   Scattered Clouds
9:00 PM 80.6 °F 85.4 °F 73.4 °F 79% 29.74 in 6.2 mi Calm Calm - N/A   Scattered Clouds
9:30 PM 80.6 °F 84.6 °F 71.6 °F 74% 29.74 in 6.2 mi West 3.5 mph - N/A   Scattered Clouds
10:00 PM 80.6 °F 83.9 °F 69.8 °F 70% 29.74 in 6.2 mi WNW 2.3 mph - N/A   Scattered Clouds
10:30 PM 80.6 °F 83.9 °F 69.8 °F 70% 29.74 in 6.2 mi West 3.5 mph - N/A   Scattered Clouds
11:00 PM 78.8 °F - 69.8 °F 74% 29.77 in 6.2 mi Calm Calm - N/A   Scattered Clouds
11:30 PM 78.8 °F - 71.6 °F 78% 29.77 in 6.2 mi Calm Calm - N/A   Scattered Clouds